Location: Moy Burn
(57.3833°N, 4.0667°W)
Time: 10:32:58
(UTC+00:00)

Cosmos 405 Rocket - Pass Details

Date: 08 August 2020
Orbit: 490 x 553 km, 81.3° (Epoch: 22 September)

Event Time Altitude Azimuth Distance (km) Brightness Sun altitude
Exits shadow 22:24:37 12° 197° (SSW) 1,551 4.7 -12.9°
Maximum altitude 22:27:59 83° 284° (WNW) 508 2.6 -13.1°
Drops below altitude 10° 22:31:46 10° 14° (NNE) 1,723 6.1 -13.3°
Sets 22:33:55 0° 15° (NNE) 2,621 7.1 -13.5°
